This is the latest recevied weather packets stored in our database for station/object DPX206-15. If no packets are shown the sender has not sent any weather packets the latest 10 day(s).
| Time | Temp. | Humidity | Pressure | Rain* | Wind** | Luminosity | Snow |
|---|---|---|---|---|---|---|---|
| 1777379536 | 13.89° C | 41% | 1026.2 hPa | 0 mm | - | 684 W/m² | - |
| 1777378787 | 13.89° C | 41% | 1026.4 hPa | 0 mm | - | 707 W/m² | - |
| 1777378037 | 13.89° C | 43% | 1026.1 hPa | 0 mm | - | 726 W/m² | - |
| 1777377286 | 13.33° C | 45% | 1026 hPa | 0 mm | - | 730 W/m² | - |
| 1777376535 | 13.89° C | 44% | 1026.3 hPa | 0 mm | - | 738 W/m² | - |
| 1777375785 | 13.89° C | 47% | 1026.2 hPa | 0 mm | - | 759 W/m² | - |
| 1777375035 | 13.33° C | 48% | 1026.1 hPa | 0 mm | - | 766 W/m² | - |
| 1777374285 | 13.33° C | 50% | 1026.2 hPa | 0 mm | - | 729 W/m² | - |
| 1777373535 | 13.89° C | 49% | 1026.2 hPa | 0 mm | - | 771 W/m² | - |
| 1777372784 | 13.33° C | 50% | 1026.2 hPa | 0 mm | - | 777 W/m² | - |
| 1777372034 | 12.78° C | 51% | 1026.2 hPa | 0 mm | - | 770 W/m² | - |
| 1777371285 | 12.78° C | 51% | 1026.4 hPa | 0 mm | - | 738 W/m² | - |
| 1777370534 | 12.22° C | 50% | 1026.2 hPa | 0 mm | - | 751 W/m² | - |
| 1777369783 | 12.78° C | 49% | 1025.8 hPa | 0 mm | - | 573 W/m² | - |
| 1777369033 | 13.33° C | 50% | 1026 hPa | 0 mm | - | 690 W/m² | - |
| 1777368282 | 12.22° C | 53% | 1025.8 hPa | 0 mm | - | 560 W/m² | - |
| 1777367533 | 12.78° C | 50% | 1026 hPa | 0 mm | - | 562 W/m² | - |
| 1777366783 | 12.78° C | 52% | 1025.8 hPa | 0 mm | - | 626 W/m² | - |
| 1777366032 | 12.78° C | 54% | 1025.7 hPa | 0 mm | - | 513 W/m² | - |
| 1777365282 | 11.67° C | 55% | 1025.8 hPa | 0 mm | - | 503 W/m² | - |
| 1777364532 | 11.11° C | 58% | 1025.5 hPa | 0 mm | - | 400 W/m² | - |
| 1777363782 | 11.11° C | 58% | 1025.5 hPa | 0 mm | - | 404 W/m² | - |
| 1777363032 | 10.56° C | 60% | 1025.3 hPa | 0 mm | - | 353 W/m² | - |
| 1777362281 | 10° C | 61% | 1025.2 hPa | 0 mm | - | 313 W/m² | - |
| 1777361531 | 8.89° C | 58% | 1025.2 hPa | 0 mm | - | 299 W/m² | - |
* Rain latest hour (hover to see other rain measurements)
** Current wind speed in m/s (hover to see current wind gust speed)